Wind_Speed
18 17 17 16 15 14 14 16 18 16 14 13 13 13 11 8 9 10 11 12 9 7 7 7 8 9 11 12 12 14 14 14 14 13 12 12 12 12 12 12 11 11 10 9 8 8 8 7 7
21 20 20 18 16 14 16 19 19 17 14 14 15 13 11 8 8 11 12 11 9 8 8 9 9 10 11 13 13 14 15 15 15 14 13 13 12 12 12 12 11 11 9 9 8 8 7 6 6
24 23 23 21 17 15 17 21 21 17 15 14 14 14 12 7 8 11 11 11 9 9 9 10 11 12 12 13 14 15 15 15 14 14 13 13 13 12 12 11 11 10 9 8 8 8 7 6 6
27 26 25 22 17 16 19 21 22 19 16 16 16 16 11 8 8 10 10 11 10 10 10 11 12 12 13 14 15 15 15 15 14 14 14 13 13 12 11 11 10 9 9 9 8 8 7 6 6
28 29 27 23 18 18 20 21 22 20 18 18 18 18 12 9 9 9 10 10 9 10 10 11 12 12 13 14 15 15 15 15 14 14 14 13 12 12 11 10 10 9 9 9 8 8 7 6 6
29 30 29 25 21 21 22 23 23 22 19 20 21 20 15 8 8 8 10 10 9 9 10 10 11 12 13 13 14 14 15 15 15 14 14 13 12 11 11 10 10 9 9 8 8 8 7 7 6
30 31 30 27 25 24 24 27 26 25 22 22 24 23 16 10 10 10 10 10 9 9 10 10 11 12 13 13 14 14 14 14 14 14 13 12 12 11 11 10 10 9 9 8 8 8 7 7 7
30 31 30 28 27 26 28 30 28 26 23 24 26 24 20 11 11 10 10 10 10 10 10 10 11 11 12 12 13 13 13 14 13 13 12 12 12 11 11 10 10 9 9 8 8 8 7 7 8
29 29 28 28 28 28 31 32 31 29 26 26 26 24 21 17 13 11 11 12 13 13 12 12 11 12 12 12 12 13 13 13 13 12 12 12 11 11 11 10 10 10 9 9 8 8 8 9 9
27 26 25 28 30 31 33 33 32 31 28 27 25 25 23 20 16 15 13 14 15 14 14 13 12 12 12 12 12 12 12 12 12 12 12 12 12 11 11 10 10 10 9 9 9 9 10 10 11
26 25 25 28 31 33 34 33 33 32 30 29 28 27 23 20 19 18 17 17 18 17 16 14 13 12 12 12 12 12 11 11 11 12 12 13 13 12 11 11 10 10 10 10 10 10 11 12 13
25 24 26 28 31 34 36 35 34 33 31 31 29 28 24 22 20 19 19 18 19 19 19 16 15 14 13 13 13 13 12 12 12 12 13 13 13 12 11 11 11 11 11 11 11 12 13 14 15
24 25 26 29 32 34 36 36 35 34 32 31 30 27 24 22 20 21 21 20 20 20 19 18 16 14 15 14 13 13 13 13 12 13 13 13 13 13 12 12 12 11 12 12 13 14 15 16 17
23 25 26 27 31 34 36 36 36 34 33 32 31 29 26 23 23 23 22 22 22 21 19 19 17 15 15 14 14 13 13 13 13 13 14 14 13 13 13 12 12 13 13 14 15 15 17 19 20
23 23 23 23 26 29 33 35 36 34 34 34 32 31 29 28 27 26 24 23 23 22 21 20 18 17 16 16 15 15 14 14 14 15 15 15 15 14 13 13 13 13 14 15 16 17 19 21 23
21 21 20 19 22 24 30 31 31 33 35 35 34 34 33 32 31 29 27 25 24 23 23 22 21 20 19 17 17 16 15 15 15 15 15 16 16 16 15 14 15 15 16 17 18 19 21 23 24
18 18 17 17 19 21 25 26 27 30 33 35 35 35 34 33 33 31 28 27 25 24 25 25 24 23 21 20 19 18 17 17 17 17 17 17 17 16 16 16 16 17 18 18 19 21 23 24 25
15 15 16 16 15 17 20 22 24 26 29 32 34 35 35 35 34 32 30 28 28 27 27 26 27 25 24 23 23 21 20 19 19 19 19 17 17 17 17 17 18 19 19 20 21 22 23 24 26
14 14 15 14 14 17 19 21 23 24 27 29 32 33 33 34 34 33 32 30 31 30 27 27 27 25 24 24 23 23 20 20 20 19 18 17 16 16 17 18 18 18 19 19 20 22 24 25 25
13 14 14 13 14 16 18 21 23 24 25 27 28 30 30 31 32 32 32 31 29 29 27 25 24 24 23 24 24 23 22 22 21 20 19 18 17 17 18 19 20 20 20 20 21 21 22 23 24
14 14 15 15 17 17 18 21 23 23 24 25 26 27 29 30 30 29 28 28 28 29 29 26 22 24 23 23 23 23 24 23 22 21 20 20 19 19 20 20 21 21 21 21 22 22 23 24 24
15 15 16 16 18 19 20 23 24 24 24 24 24 26 28 29 29 29 29 28 28 28 27 25 23 23 23 22 23 24 25 24 24 23 22 21 20 21 22 22 22 22 23 23 23 24 26 27 27
14 16 17 17 19 20 21 23 25 25 26 25 25 26 28 29 29 29 30 30 29 29 27 25 24 23 24 23 23 24 25 25 25 24 23 23 23 23 24 24 24 24 23 24 25 27 28 29 30
14 15 17 18 20 20 20 23 24 24 24 25 26 26 27 29 29 29 29 29 28 27 27 26 25 25 25 24 23 24 25 25 25 25 24 25 25 25 25 25 26 26 25 27 27 29 30 32 33
13 14 15 16 18 19 20 23 24 24 25 24 25 25 25 27 28 28 28 27 27 27 27 27 28 26 26 26 26 26 26 27 28 26 26 26 26 26 26 26 27 28 29 30 31 32 33 34 35
12 14 15 15 16 17 19 21 22 23 24 24 24 23 24 26 27 28 29 29 28 27 28 28 28 28 27 28 28 28 27 27 27 26 26 27 28 28 28 29 30 31 32 33 34 35 36 37 38
12 14 16 16 16 17 19 21 21 21 23 23 23 24 24 25 26 27 28 28 28 28 28 28 28 29 29 29 29 29 29 29 28 29 29 29 30 30 31 32 33 33 33 35 36 37 38 39 39
11 12 15 17 16 17 18 19 22 22 23 23 23 25 25 25 26 26 26 27 28 28 29 29 29 29 30 30 30 30 30 30 30 30 31 32 32 32 33 33 33 33 34 35 37 38 39 39 40
9 11 14 16 17 17 17 17 18 18 19 21 22 25 25 24 25 25 25 26 26 27 27 28 28 29 30 30 31 31 31 31 31 31 32 32 33 33 33 34 35 35 36 37 38 38 39 40 40
8 8 11 13 15 15 16 15 13 14 15 16 18 19 21 23 24 24 25 26 26 27 28 28 28 29 30 30 31 31 32 32 32 33 33 34 34 35 35 36 36 37 37 38 38 38 39 40 40
Wind_Direction
249 250 249 248 245 238 233 232 238 243 254 265 264 257 242 256 278 290 292 292 284 264 258 256 257 256 256 256 256 254 253 256 258 259 263 268 274 279 282 285 285 286 285 283 283 286 288 290 294
245 247 247 247 244 236 230 233 241 248 256 269 264 252 241 250 279 287 286 284 275 260 258 260 260 260 259 258 258 258 257 256 258 259 262 266 271 275 278 280 281 282 280 280 282 284 287 291 295
244 245 246 246 243 237 232 236 245 252 258 267 260 249 243 248 273 276 275 274 269 268 263 260 261 261 262 261 260 260 258 257 258 259 261 264 267 271 272 273 275 275 274 277 280 283 285 289 294
244 244 245 245 242 236 234 238 247 252 263 266 260 260 252 253 257 267 276 272 268 269 265 263 262 264 263 262 260 259 258 258 257 257 259 261 262 264 265 267 270 269 270 274 277 280 282 287 291
243 243 244 243 238 234 235 238 244 250 259 264 259 258 258 267 265 269 278 272 270 269 267 266 265 265 264 262 260 258 257 257 255 254 256 257 258 258 259 262 264 264 268 271 273 275 279 284 286
245 243 242 241 235 230 231 235 242 245 254 262 261 261 258 257 264 273 278 273 272 268 265 264 265 266 264 262 259 256 254 254 252 251 250 252 252 253 255 257 259 262 265 266 267 271 277 280 284
246 244 241 238 232 227 227 231 238 243 249 261 264 263 256 247 261 271 275 272 267 264 260 259 260 264 263 261 259 254 251 250 250 247 245 246 247 249 252 255 258 260 262 262 266 271 275 279 282
247 245 241 236 232 224 227 231 237 244 248 256 262 262 262 254 260 259 264 265 264 260 258 260 259 260 260 258 256 254 250 247 246 243 242 244 247 249 252 254 256 257 261 263 267 271 275 281 284
251 247 241 235 231 223 226 231 235 240 248 253 256 258 261 262 256 258 264 266 269 258 257 259 258 256 255 254 253 251 249 245 243 241 240 243 245 248 251 253 254 258 263 268 271 274 278 283 287
254 250 240 233 230 223 225 230 233 238 244 250 255 257 257 260 257 257 260 265 263 254 252 252 252 251 249 249 248 246 245 242 240 240 241 243 244 246 249 251 256 261 265 270 275 278 281 286 290
255 250 239 232 230 225 224 227 230 235 241 248 254 255 252 257 256 256 255 254 255 252 252 245 242 244 245 244 244 243 241 238 239 241 243 242 243 244 247 251 257 261 265 273 279 281 284 286 290
255 249 240 232 229 226 225 227 229 233 238 246 252 253 254 254 256 255 253 252 249 247 246 240 238 238 241 242 240 241 240 239 240 241 242 241 242 243 246 249 256 262 267 273 277 282 286 290 293
255 250 243 235 230 227 227 228 229 232 237 243 249 251 251 249 253 251 248 251 251 249 242 240 235 232 235 239 236 237 237 237 240 239 239 238 240 243 245 251 256 263 270 275 281 285 288 291 293
256 251 246 240 234 231 230 229 230 230 235 240 246 250 255 256 258 257 252 251 253 255 252 237 237 240 238 237 236 235 234 235 238 240 239 236 239 242 244 249 257 263 270 278 284 286 287 288 290
254 251 246 242 238 234 233 232 233 232 234 238 243 249 252 255 259 259 257 253 254 252 247 244 239 239 241 239 237 237 235 236 239 240 239 238 239 240 244 252 256 262 269 275 280 283 286 288 289
252 249 244 237 235 233 234 233 232 233 232 235 240 245 249 255 260 260 258 258 257 250 246 249 240 235 236 238 236 237 239 239 239 240 241 239 241 242 245 251 256 262 268 273 277 280 286 289 288
249 245 236 225 226 229 234 232 228 231 231 232 236 241 246 252 256 258 258 259 258 254 251 247 241 234 230 231 233 233 237 237 237 238 240 242 243 245 249 255 261 267 272 277 281 284 286 288 288
237 233 225 213 211 223 229 225 222 227 228 230 234 238 243 247 251 254 258 261 260 259 253 250 244 240 236 234 232 234 234 237 239 239 241 243 245 249 254 261 265 271 276 279 283 285 285 288 289
221 220 218 209 211 222 220 218 219 223 227 229 232 236 240 244 247 251 255 260 261 262 258 251 247 244 239 233 234 236 236 238 238 240 242 243 246 252 257 263 268 274 278 280 284 286 286 287 287
222 221 213 208 216 222 218 218 219 221 224 228 232 235 238 242 246 250 254 258 260 263 265 258 247 249 243 238 238 239 237 238 243 247 246 245 250 259 260 265 270 276 280 282 285 288 286 287 287
223 225 219 215 214 219 222 222 223 224 227 229 232 236 239 242 247 251 256 259 259 264 266 264 254 247 247 246 245 247 241 241 245 250 251 253 255 262 265 267 273 275 278 281 283 285 286 288 288
228 224 226 215 216 220 226 229 226 228 232 233 235 239 241 244 247 252 255 256 257 260 265 262 259 253 251 253 253 255 249 247 249 251 256 258 262 268 273 275 278 279 281 283 284 285 286 287 289
234 229 228 226 221 221 225 234 230 229 232 237 240 242 244 246 248 252 254 254 253 256 262 263 262 260 258 259 258 259 256 256 257 256 260 263 265 271 276 277 278 280 283 284 285 287 287 287 287
238 234 232 232 227 225 229 237 236 234 237 239 241 245 246 247 250 252 256 253 252 257 260 263 264 263 265 265 267 266 265 264 265 263 262 264 267 271 275 277 277 279 282 284 285 287 288 288 288
233 236 236 236 230 233 234 239 240 240 242 243 242 245 247 249 252 255 257 256 255 258 261 265 266 266 267 269 270 270 271 272 270 269 270 271 269 272 276 278 279 281 283 285 286 288 289 289 289
229 234 234 238 233 234 236 241 241 242 242 244 244 245 248 249 251 254 257 258 258 260 262 265 267 268 270 270 270 272 273 274 272 272 274 276 275 276 281 283 283 283 284 285 287 287 288 288 289
228 233 236 242 241 238 238 243 248 247 245 245 247 249 252 250 251 253 256 259 261 263 264 266 267 269 270 271 271 272 273 274 275 275 277 278 279 280 283 285 284 284 284 285 286 287 287 288 288
236 234 239 246 250 247 245 251 255 260 255 252 249 251 253 252 251 253 257 259 259 260 262 265 267 267 268 269 270 270 271 272 274 276 278 279 280 281 283 283 284 284 284 285 286 287 286 286 286
229 233 241 248 253 254 258 262 262 266 267 260 255 255 253 252 254 255 256 257 258 258 260 263 265 266 267 269 269 271 272 274 275 276 278 279 280 282 283 283 286 285 286 287 287 286 286 286 286
239 243 244 251 254 261 272 278 277 279 281 271 264 255 249 252 256 258 258 259 259 260 263 265 266 266 267 269 270 271 273 274 275 276 278 278 278 281 283 284 285 287 287 287 287 288 287 287 287
Height
5890 5891 5892 5893 5895 5895 5895 5895 5893 5894 5894 5894 5894 5893 5893 5893 5896 5900 5899 5898 5899 5900 5900 5901 5901 5902 5903 5903 5903 5904 5904 5904 5905 5905 5905 5905 5905 5905 5905 5905 5905 5904 5904 5903 5903 5902 5902 5901 5901
5887 5888 5889 5890 5891 5892 5893 5892 5891 5891 5891 5891 5891 5890 5889 5890 5894 5896 5896 5896 5897 5898 5899 5899 5900 5901 5901 5901 5902 5902 5903 5903 5903 5904 5904 5904 5904 5904 5904 5904 5903 5903 5903 5902 5902 5901 5901 5900 5900
5883 5884 5885 5887 5888 5890 5890 5889 5889 5889 5889 5888 5888 5886 5885 5887 5890 5893 5894 5895 5896 5896 5896 5897 5898 5899 5899 5899 5900 5900 5901 5901 5902 5902 5902 5902 5902 5902 5902 5903 5902 5902 5902 5901 5901 5900 5900 5899 5899
5879 5880 5882 5884 5886 5887 5887 5887 5886 5886 5886 5886 5885 5884 5883 5885 5888 5890 5891 5892 5892 5893 5894 5895 5896 5896 5897 5897 5898 5898 5899 5899 5900 5900 5900 5901 5901 5901 5901 5901 5901 5901 5901 5900 5900 5899 5899 5899 5898
5873 5875 5877 5879 5883 5884 5884 5884 5883 5884 5883 5882 5882 5881 5881 5884 5886 5887 5889 5889 5890 5891 5892 5893 5893 5894 5894 5895 5895 5896 5897 5897 5898 5898 5899 5899 5899 5899 5899 5900 5900 5900 5900 5899 5899 5898 5898 5897 5897
5868 5869 5872 5875 5879 5880 5880 5880 5879 5880 5879 5879 5879 5878 5878 5881 5884 5884 5886 5887 5888 5889 5890 5890 5891 5891 5892 5892 5893 5893 5894 5895 5895 5896 5896 5897 5897 5897 5898 5898 5898 5899 5898 5898 5898 5897 5897 5896 5896
5863 5864 5866 5870 5873 5875 5876 5874 5873 5874 5874 5874 5875 5874 5874 5877 5880 5881 5882 5884 5886 5887 5887 5888 5888 5889 5889 5890 5891 5891 5891 5892 5893 5893 5894 5894 5895 5895 5896 5896 5897 5897 5897 5897 5896 5896 5895 5895 5894
5855 5858 5861 5865 5868 5871 5871 5869 5868 5869 5869 5869 5870 5870 5871 5873 5876 5878 5879 5881 5883 5884 5885 5885 5886 5886 5887 5887 5888 5888 5889 5889 5890 5891 5892 5892 5893 5893 5894 5894 5895 5895 5895 5895 5895 5894 5894 5893 5893
5849 5853 5856 5860 5863 5865 5864 5863 5863 5864 5864 5865 5865 5867 5868 5870 5872 5874 5877 5878 5881 5882 5883 5883 5883 5884 5884 5885 5885 5886 5886 5887 5888 5889 5889 5890 5890 5891 5891 5892 5893 5893 5893 5893 5893 5893 5892 5891 5891
5844 5847 5851 5853 5855 5858 5858 5858 5858 5859 5860 5861 5862 5863 5865 5866 5868 5871 5874 5875 5877 5879 5880 5880 5881 5881 5881 5882 5883 5883 5884 5884 5885 5886 5887 5887 5888 5888 5889 5890 5890 5891 5891 5891 5891 5890 5890 5889 5889
5838 5841 5843 5845 5848 5850 5851 5852 5853 5854 5856 5857 5858 5860 5861 5863 5864 5868 5871 5873 5874 5876 5876 5877 5877 5878 5879 5879 5880 5881 5881 5882 5882 5883 5884 5884 5885 5885 5886 5887 5888 5888 5888 5888 5888 5888 5887 5887 5886
5832 5834 5836 5838 5840 5842 5845 5847 5849 5850 5852 5852 5854 5856 5859 5860 5861 5864 5867 5869 5871 5872 5872 5873 5874 5875 5876 5876 5877 5878 5879 5879 5880 5880 5881 5881 5882 5883 5883 5884 5884 5885 5885 5885 5885 5885 5884 5884 5883
5826 5828 5829 5831 5833 5835 5838 5841 5844 5846 5848 5848 5849 5852 5854 5856 5858 5860 5862 5865 5866 5867 5868 5869 5870 5870 5872 5873 5874 5875 5875 5876 5877 5877 5878 5879 5879 5880 5880 5881 5881 5881 5882 5882 5882 5881 5881 5880 5879
5820 5821 5823 5826 5828 5830 5832 5836 5839 5842 5844 5844 5846 5848 5851 5853 5855 5855 5858 5861 5864 5865 5865 5866 5866 5867 5869 5870 5871 5871 5872 5872 5873 5874 5875 5875 5876 5876 5877 5877 5878 5878 5878 5878 5878 5877 5877 5876 5875
5815 5816 5818 5820 5822 5825 5827 5830 5834 5838 5840 5840 5842 5843 5846 5848 5851 5852 5854 5856 5858 5860 5862 5862 5862 5863 5865 5866 5867 5867 5867 5868 5869 5870 5871 5872 5872 5873 5873 5874 5874 5874 5874 5874 5874 5873 5872 5871 5870
5810 5811 5814 5816 5817 5819 5821 5824 5829 5831 5834 5836 5837 5838 5841 5843 5845 5847 5849 5850 5853 5855 5857 5857 5858 5859 5860 5861 5863 5863 5863 5864 5865 5866 5867 5868 5868 5869 5869 5870 5870 5870 5870 5869 5869 5868 5867 5866 5865
5805 5807 5808 5810 5812 5813 5815 5818 5822 5823 5827 5830 5832 5834 5836 5838 5839 5841 5843 5845 5848 5849 5850 5851 5852 5854 5854 5856 5857 5858 5858 5858 5859 5861 5862 5863 5863 5864 5864 5865 5865 5865 5864 5864 5863 5863 5861 5860 5859
5801 5802 5804 5806 5808 5809 5810 5813 5815 5817 5820 5823 5826 5829 5832 5834 5835 5836 5839 5841 5843 5843 5843 5844 5845 5847 5848 5849 5850 5851 5852 5853 5854 5855 5856 5857 5857 5858 5859 5859 5859 5859 5859 5858 5857 5856 5855 5854 5852
5796 5798 5799 5801 5803 5804 5805 5808 5810 5812 5815 5818 5821 5824 5827 5829 5831 5833 5834 5835 5837 5837 5838 5838 5838 5838 5840 5843 5844 5845 5847 5848 5848 5849 5849 5850 5851 5851 5852 5853 5853 5853 5853 5852 5851 5850 5849 5847 5845
5792 5794 5795 5798 5799 5800 5801 5804 5806 5808 5811 5814 5817 5820 5822 5824 5826 5828 5829 5829 5831 5831 5830 5831 5830 5832 5834 5837 5838 5839 5840 5842 5843 5843 5844 5844 5845 5845 5845 5846 5847 5847 5846 5845 5844 5843 5842 5841 5839
5789 5790 5791 5793 5795 5796 5798 5800 5802 5805 5807 5810 5813 5815 5817 5819 5821 5823 5825 5825 5827 5828 5827 5825 5825 5827 5828 5829 5831 5832 5833 5835 5836 5837 5838 5839 5839 5839 5839 5840 5840 5840 5839 5839 5838 5837 5836 5834 5832
5785 5787 5787 5789 5791 5793 5795 5796 5799 5800 5803 5805 5808 5809 5811 5813 5815 5817 5819 5820 5821 5822 5822 5821 5820 5822 5823 5825 5827 5827 5827 5828 5829 5830 5831 5832 5832 5833 5833 5833 5833 5833 5832 5832 5831 5830 5829 5827 5825
5781 5783 5783 5785 5786 5789 5790 5791 5795 5796 5799 5800 5802 5803 5806 5807 5810 5811 5812 5813 5814 5816 5817 5818 5817 5817 5818 5819 5820 5820 5821 5822 5823 5823 5825 5826 5827 5827 5827 5827 5826 5826 5826 5825 5824 5823 5821 5820 5818
5778 5779 5780 5781 5783 5785 5787 5788 5790 5792 5793 5795 5797 5798 5800 5802 5803 5805 5805 5805 5807 5809 5811 5812 5812 5812 5813 5814 5814 5814 5815 5816 5817 5817 5818 5819 5820 5820 5820 5820 5820 5819 5818 5818 5816 5815 5813 5811 5809
5774 5776 5777 5778 5779 5782 5783 5783 5785 5786 5788 5790 5791 5793 5794 5796 5797 5798 5799 5800 5801 5803 5805 5806 5806 5806 5807 5808 5808 5808 5809 5810 5810 5811 5812 5812 5812 5813 5813 5812 5812 5812 5811 5809 5808 5806 5804 5802 5800
5772 5773 5775 5776 5777 5778 5779 5779 5780 5781 5783 5785 5786 5787 5789 5790 5791 5793 5794 5795 5796 5797 5798 5799 5800 5801 5801 5801 5802 5802 5803 5803 5804 5804 5804 5805 5805 5805 5805 5805 5804 5803 5802 5800 5798 5797 5795 5792 5790
5769 5770 5772 5773 5774 5775 5775 5775 5776 5776 5778 5779 5781 5782 5783 5785 5786 5787 5788 5789 5790 5791 5791 5792 5793 5794 5795 5795 5795 5796 5796 5797 5797 5797 5797 5797 5797 5797 5797 5796 5795 5794 5792 5790 5789 5787 5785 5782 5779
5768 5768 5769 5770 5771 5771 5772 5772 5772 5773 5773 5774 5775 5777 5778 5779 5780 5781 5782 5783 5784 5784 5785 5786 5786 5787 5787 5788 5788 5789 5789 5789 5789 5789 5789 5789 5788 5788 5787 5786 5785 5784 5782 5780 5779 5776 5774 5772 5769
5766 5766 5766 5767 5768 5768 5769 5771 5769 5769 5768 5769 5770 5771 5772 5773 5774 5775 5776 5777 5778 5778 5778 5779 5780 5780 5781 5781 5781 5781 5781 5781 5781 5781 5781 5780 5780 5779 5778 5777 5776 5774 5772 5770 5768 5766 5763 5761 5758
5763 5764 5764 5765 5765 5765 5765 5768 5765 5765 5764 5764 5764 5764 5765 5767 5768 5769 5770 5771 5771 5771 5772 5772 5772 5773 5773 5773 5773 5773 5773 5773 5773 5773 5772 5772 5771 5770 5768 5767 5766 5764 5762 5760 5757 5755 5753 5750 5747